Weather Roundup
Issued by NWS

Home | Current Version | Previous Version | Graphics & Text | Print | Product List | Glossary Off
Versions: 1 2 3 4 5 6 7 8 9 10 11 12 13 14 15 16 17 18 19 20 21 22 23 24 25 26 27 28 29 30 31 32 33 34 35 36 37 38 39 40 41 42 43 44 45 46 47 48 49 50

000
NZUS93 KARX 051710
HRRWXR

CURRENT HOURLY OBSERVATIONS ACROSS
MUCH OF THE UPPER MISSISSIPPI VALLEY
NATIONAL WEATHER SERVICE LA CROSSE WI
1200 PM CDT SUN JUL 05 2015


...SOUTHEAST MINNESOTA...


CITY           SKY/WX    TMP DP  RH WIND       PRES   REMARKS
ROCHESTER      PTSUNNY   77  65  66 S13G23    29.97F
ROCHESTER/MAYO FAIR      76  64  65 S8G21     29.97S
WINONA         MOSUNNY   79  63  57 SW7       29.97F
AUSTIN         PTSUNNY   81  66  61 S14       29.96S
ALBERT LEA     CLOUDY    81  66  61 S13G21    29.93F
DODGE CENTER   PTSUNNY   77  66  69 S15       29.95F
PRESTON        PTSUNNY   76  65  66 S10G18    30.00F
OWATONNA       PTSUNNY   81  64  57 S15G22    29.92F
FARIBAULT      PTSUNNY   81  66  61 SE16      29.90F
$$

...ELSEWHERE IN MINNESOTA...


CITY           SKY/WX    TMP DP  RH WIND       PRES   REMARKS
MINNEAPOLIS    CLOUDY    80  65  59 S15G22    29.87F
INTNL FALLS    CLOUDY    77  68  73 S3        29.79S
DULUTH         MOSUNNY   77  64  64 S13       29.88S
RED WING       PTSUNNY   81  64  57 S7        29.92S
REDWOOD FALLS  MOSUNNY   82  66  58 S14       29.84R
MANKATO        PTSUNNY   79  66  65 S14G24    29.88S
WORTHINGTON    MOSUNNY   79  66  65 SW22G35   29.85R
FAIRMONT       CLOUDY    75  63  64 S17G23    29.88S
$$

...SOUTHWEST WISCONSIN...


CITY           SKY/WX    TMP DP  RH WIND       PRES   REMARKS
LA CROSSE      MOSUNNY   81  65  58 S12       29.99S
PRAIRIE DU CHI MOSUNNY   79  62  54 S10       30.01F
BOSCOBEL       SUNNY     82  64  54 S10       30.03S
LONE ROCK      PTSUNNY   81  64  56 S9        30.04F
PLATTEVILLE    PTSUNNY   78  66  65 SW9       30.05F
FORT MC COY    MOSUNNY   81  59  47 S9        30.02S
CAMP DOUGLAS   PTSUNNY   79  68  69 SW8       30.01F
VIROQUA        FAIR      79  63  58 S12       30.04S
WIS DELLS      PTSUNNY   79  62  56 SW8       30.05S
$$

...ELSEWHERE IN WISCONSIN...


CITY           SKY/WX    TMP DP  RH WIND       PRES   REMARKS
MILWAUKEE      MOSUNNY   80  60  50 S8        30.07S
MADISON        MOSUNNY   79  62  56 S7        30.06R
GREEN BAY      MOSUNNY   79  63  57 S9        30.04F
EAU CLAIRE     MOSUNNY   80  63  55 S14       29.96S
BLACK RVR FLS  FAIR      81  59  47 SW9       29.99F
MEDFORD        MOSUNNY   75  62  62 S9G17     30.01F
WAUSAU         MOSUNNY   78  59  51 SW10      30.01F
WIS RAPIDS     PTSUNNY   79  62  56 SW9       30.04F
MARSHFIELD     MOSUNNY   79  62  56 S9        30.01F
RICE LAKE      MOSUNNY   77  62  58 S14G20    29.95F
$$

...NORTHEAST IOWA...


CITY           SKY/WX    TMP DP  RH WIND       PRES   REMARKS
DECORAH          N/A    N/A N/A N/A MISG        N/A
MASON CITY     CLOUDY    78  67  68 S16       29.97F
CHARLES CITY   PTSUNNY   79  70  73 S12G20    29.99F
OELWEIN        PTSUNNY   77  68  73 S9G16     30.03S
$$

...ELSEWHERE IN IOWA...


CITY           SKY/WX    TMP DP  RH WIND       PRES   REMARKS
DES MOINES     CLOUDY    81  68  64 S13       29.98S
IOWA CITY      MOSUNNY   80  66  62 S10       30.03F
FORT DODGE     CLOUDY    79  68  69 S15       29.95F
$$

...NORTHERN ILLINOIS...


CITY           SKY/WX    TMP DP  RH WIND       PRES   REMARKS
CHICAGO-OHARE  MOSUNNY   80  60  50 S10       30.08S
CHICAGO-MIDWAY MOSUNNY   81  60  48 CALM      30.08F
MOLINE         PTSUNNY   80  66  62 S7        30.04F
ROCKFORD       MOSUNNY   80  64  58 S6        30.09S
PEORIA         PTSUNNY   80  64  58 S7        30.08S
$$

NOTE: "FAIR" INDICATES FEW OR NO CLOUDS BELOW 12,000 FEET WITH NO
SIGNIFICANT WEATHER AND/OR OBSTRUCTIONS TO VISIBILITY. WIND
SPEEDS ARE IN MILES-PER-HOUR.



USA.gov is the U.S. government's official web portal to all federal, state and local government web resources and services.